Flag for Lithuania Weather past 2 weeks in Vilnius, Lithuania

Now
66 °F

Sunny.


Feels Like: 66 °F
Forecast: 62 / 90 °F
Wind: 3 mph from Southeast

Location: Vilnius Airport

Current Time: Aug 5, 2015 at 7:34:28 AM

Latest Report: Aug 5, 2015 at 6:50 AM


Visibility: 10 mi

Pressure: 30.09 "Hg

Humidity: 73%

Dew point: 57 °F

Location of VilniusLocation

Historic Weather in Vilnius — Graph

°F

Vilnius temperature yesterday

Maximum temperature yesterday: 86 °F (at 3:50 PM)
Minimum temperature yesterday: 55 °F (at 5:20 AM)
Average temperature yesterday: 73 °F

Past Weeks' High & Low Weather Summary

 TemperatureHumidityPressure
High86 °F (Aug 4, 3:50 PM)100% (Jul 23, 2:20 PM)30.27 "Hg (Jul 23, 2:20 PM)
Low46 °F (Aug 2, 3:50 AM)26% (Aug 3, 5:50 PM)29.59 "Hg (Jul 28, 2:20 PM)
Average63 °F70%29.91 "Hg
* Reported Jul 21 5:20 AM — Aug 5 5:50 AM, Vilnius, Weather by CustomWeather, © 2015

Note: Actual official high and low records may vary slightly from our data, if they occured in-between our weather recording intervals... More about our weather records

Advertising

Vilnius weather history for previous 24 hours

 ConditionsComfort  
Time TempWeatherWind HumidityBarometerVisibility
5:50 AM
Wed, Aug 5
66 °FClear.7 mph73%30.09 "Hg10 mi
5:20 AM68 °FClear.8 mph69%30.09 "Hg10 mi
4:50 AM68 °FClear.1 mph69%30.09 "Hg10 mi
4:20 AM68 °FClear.1 mph64%30.09 "Hg10 mi
3:50 AM66 °FClear.1 mph73%30.09 "Hg10 mi
3:20 AM66 °FClear.1 mph73%30.09 "Hg10 mi
2:50 AM66 °FClear.No wind68%30.09 "Hg10 mi
2:20 AM66 °FClear.No wind68%30.09 "Hg10 mi
1:50 AM66 °FClear.1 mph73%30.09 "Hg10 mi
1:20 AM66 °FClear.No wind73%30.09 "Hg10 mi
12:50 AM68 °FClear.1 mph69%30.09 "Hg10 mi
12:20 AM68 °FClear.1 mph69%30.09 "Hg10 mi
11:50 PM
Tue, Aug 4
68 °FClear.1 mph69%30.09 "Hg10 mi
11:20 PM70 °FClear.2 mph64%30.09 "Hg10 mi
10:50 PM70 °FClear.1 mph64%30.09 "Hg10 mi
10:20 PM72 °FClear.2 mph61%30.09 "Hg10 mi
9:50 PM73 °FSunny.3 mph53%30.09 "Hg10 mi
9:20 PM73 °FSunny.5 mph57%30.09 "Hg10 mi
8:50 PM77 °FSunny.5 mph51%30.09 "Hg10 mi
8:20 PM79 °FSunny.6 mph48%30.07 "Hg10 mi
7:50 PM81 °FSunny.3 mph48%30.07 "Hg10 mi
7:20 PM82 °FSunny.3 mph45%30.07 "Hg10 mi
6:50 PM82 °FPassing clouds.5 mph45%30.09 "HgN/A
6:20 PM84 °FSunny.3 mph37%30.09 "Hg10 mi
5:50 PM84 °FSunny.3 mph33%30.09 "Hg10 mi
5:20 PM84 °FSunny.2 mph33%30.09 "Hg10 mi
4:50 PM84 °FPassing clouds.3 mph37%30.09 "HgN/A
4:20 PM84 °FPassing clouds.5 mph37%30.09 "HgN/A
3:50 PM86 °FSunny.2 mph33%30.09 "Hg10 mi
3:20 PM84 °FPassing clouds.6 mph37%30.12 "HgN/A
2:50 PM84 °FSunny.1 mph35%30.12 "Hg10 mi
2:20 PM84 °FPassing clouds.5 mph35%30.12 "HgN/A
1:50 PM82 °FSunny.2 mph40%30.12 "Hg10 mi
1:20 PM82 °FSunny.2 mph35%30.12 "Hg10 mi
12:50 PM81 °FPassing clouds.5 mph37%30.15 "HgN/A
12:20 PM81 °FPassing clouds.5 mph39%30.15 "HgN/A
11:50 AM81 °FPassing clouds.5 mph45%30.15 "HgN/A
11:20 AM79 °FPassing clouds.3 mph48%30.15 "HgN/A
10:50 AM79 °FSunny.3 mph51%30.15 "Hg10 mi
10:20 AM77 °FSunny.1 mph51%30.15 "Hg10 mi
9:50 AM75 °FSunny.1 mph57%30.15 "Hg10 mi
9:20 AM72 °FSunny.No wind65%30.15 "Hg10 mi
8:50 AM70 °FSunny.2 mph69%30.15 "Hg10 mi
8:20 AM66 °FSunny.3 mph73%30.15 "Hg10 mi
7:50 AM64 °FSunny.3 mph78%30.15 "Hg10 mi
7:20 AM63 °FSunny.3 mph83%30.15 "Hg10 mi
Weather by CustomWeather, © 2015

See weather overviewHow to use our weather pages